{"data":{"norad_id":81614,"epoch":"2026-09-15T22:57:22.431168Z","epoch_age_seconds":407079,"freshness":"STALE","line1":"1 81614U          26258.95650962  .00003712  00000+0  20879-1 0  9994","line2":"2 81614 101.8580 252.2833 0414653 354.0078   5.6117 12.39934385572304","mean_motion":12.39934385,"eccentricity":0.0414653,"inclination_deg":101.858,"raan_deg":252.2833,"arg_perigee_deg":354.0078,"mean_anomaly_deg":5.6117,"bstar":0.020879,"rev_number":57230,"period_min":116.13517758845,"perigee_km":1179.9266490674,"apogee_km":1833.8359475574,"semimajor_km":7885.0182983124,"source":"CELESTRAK","updated_at":"2026-09-20T09:00:32.391366Z"}}